Back to catalog

SL-12 R/B

AUX MOTOR

AliveHEO
NORAD 33385·ROCKET BODY·🇷🇺 Russia

Launched Sep 25, 2008 from Baikonur Cosmodrome

Loading…

Next Passes (next 24 hours)

TLE

FreshSource: Space-Track

Epoch: Sep 8, 2026, 08:08 UTC

1 33385U 08046H   26251.33894719  .00000025  00000-0  71884-3 0  9998
2 33385  65.2644  28.4386 5544605 266.6568  31.9706  4.21878146188992

Track SL-12 R/B in real time with AllMySat

Download on the App Store